Flag for Germany Weather past 2 weeks in Freiberg, Saxony, Germany

Now
55 °F

Light rain. Passing clouds.


Feels Like: 54 °F
Forecast: 47 / 51 °F
Wind: 7 mph from Northwest

Location: Dresden-Klotzsche

Current Time: Sep 21, 2014 at 9:20:02 PM

Latest Report: Sep 21, 2014 at 8:50 PM


Visibility: N/A

Pressure: 29.89 "Hg

Humidity: 94%

Dew point: 54 °F

Location of FreibergLocation

Historic Weather in Freiberg — Graph

°F

Freiberg temperature yesterday

Maximum temperature yesterday: 70 °F (at 11:50 AM)
Minimum temperature yesterday: 59 °F (at 4:50 AM)
Average temperature yesterday: 63 °F

Past Weeks' High & Low Weather Summary

 TemperatureHumidityPressure
High77 °F (Sep 7, 1:20 PM)100% (Sep 8, 9:20 AM)30.12 "Hg (Sep 8, 9:20 AM)
Low54 °F (Sep 11, 12:20 AM)44% (Sep 17, 2:50 PM)29.83 "Hg (Sep 21, 6:20 PM)
Average62 °F85%30.00 "Hg
* Reported Sep 6 7:20 PM — Sep 21 7:50 PM, Freiberg, Weather by CustomWeather, © 2014

Note: Actual official high and low records may vary slightly from our data, if they occured in-between our weather recording intervals... More about our weather records

Advertising

Freiberg weather history for previous 24 hours

 ConditionsComfort  
Time TempWeatherWind HumidityBarometerVisibility
7:50 PM
Sep 21
57 °FRain. Fog.13 mph94%29.86 "Hg2 mi
7:20 PM57 °FLight rain. Fog.7 mph100%29.86 "Hg3 mi
6:50 PM59 °FLight rain. Partly sunny.8 mph94%29.86 "Hg4 mi
6:20 PM61 °FBroken clouds.6 mph94%29.83 "Hg4 mi
5:50 PM63 °FPartly sunny.6 mph88%29.86 "Hg4 mi
5:20 PM63 °FBroken clouds.6 mph88%29.86 "Hg4 mi
4:20 PM63 °FPartly sunny.6 mph88%29.86 "Hg4 mi
3:50 PM63 °FBroken clouds.8 mph94%29.86 "Hg4 mi
3:20 PM63 °FFog.8 mph88%29.86 "Hg3 mi
2:50 PM63 °FBroken clouds.7 mph94%29.86 "Hg4 mi
2:20 PM61 °FLight rain. Fog.8 mph94%29.86 "Hg3 mi
1:50 PM61 °FLight rain. Fog.6 mph94%29.89 "Hg3 mi
1:20 PM61 °FLight rain. Fog.5 mph94%29.89 "Hg3 mi
12:50 PM61 °FLight rain. Fog.6 mph100%29.89 "Hg3 mi
12:20 PM59 °FLight rain. Partly sunny.6 mph100%29.89 "Hg4 mi
11:20 AM59 °FRain. Fog.6 mph100%29.89 "Hg2 mi
10:50 AM61 °FLight rain. Broken clouds.8 mph94%29.89 "Hg4 mi
10:20 AM61 °FLight rain. Broken clouds.3 mph94%29.89 "Hg4 mi
9:50 AM59 °FSprinkles. Broken clouds.6 mph100%29.89 "Hg2 mi
9:20 AM61 °FSprinkles. Broken clouds.6 mph88%29.89 "HgN/A
8:50 AM61 °FPartly sunny.5 mph88%29.89 "HgN/A
8:20 AM61 °FPartly sunny.3 mph88%29.89 "HgN/A
7:50 AM59 °FPartly sunny.3 mph94%29.89 "HgN/A
7:20 AM59 °FPassing clouds.2 mph94%29.89 "HgN/A
6:50 AM61 °FPassing clouds.6 mph88%29.89 "HgN/A
6:20 AM59 °FPassing clouds.7 mph94%29.89 "HgN/A
5:50 AM59 °FPassing clouds.6 mph94%29.89 "HgN/A
5:20 AM59 °FPassing clouds.5 mph94%29.89 "HgN/A
4:50 AM59 °FPassing clouds.6 mph94%29.89 "HgN/A
4:20 AM59 °FPassing clouds.6 mph94%29.89 "HgN/A
3:50 AM59 °FPassing clouds.6 mph94%29.89 "HgN/A
3:20 AM59 °FPassing clouds.6 mph94%29.92 "HgN/A
2:50 AM61 °FPassing clouds.6 mph88%29.92 "HgN/A
2:20 AM61 °FPassing clouds.7 mph88%29.92 "HgN/A
1:50 AM61 °FPassing clouds.6 mph88%29.92 "HgN/A
1:20 AM61 °FClear.6 mph88%29.92 "Hg10 mi
12:20 AM61 °FClear.6 mph94%29.92 "Hg10 mi
11:50 PM
Sep 20
61 °FClear.5 mph94%29.92 "Hg10 mi
11:20 PM61 °FPassing clouds.7 mph94%29.92 "HgN/A
10:20 PM63 °FScattered showers. Passing clouds.6 mph94%29.92 "HgN/A
9:50 PM63 °FThundershowers. Passing clouds.7 mph94%29.92 "HgN/A
9:20 PM63 °FPartly cloudy.6 mph94%29.92 "HgN/A
Weather by CustomWeather, © 2014

See weather overviewHow to use our weather pages